Location: Greenwich
(51.4790°N, 0.0090°E)
Time: 16:48:19
(UTC+01:00)

Explorer 7 - Pass Details

Date: 18 April 2024
Orbit: 467 x 626 km, 50.3° (Epoch: 17 May)

Event Time Altitude Azimuth Distance (km) Brightness Sun altitude
Rises 12:53:03 0° 219° (SW) 2,901 10.9 49.6°
Reaches altitude 10° 12:55:34 10° 209° (SSW) 2,002 10.4 49.6°
Maximum altitude 12:59:36 31° 148° (SSE) 1,114 9.6 49.6°
Drops below altitude 10° 13:03:39 10° 87° (E) 1,995 9.8 49.6°
Sets 13:06:08 0° 77° (ENE) 2,889 10.4 49.6°
